Weather History for KGDV - July, 2012

Change the Weather History Date:

Monday, July 2, 2012

  Actual Average Record
Temperature  
Mean Temperature 78 °F -  
Max Temperature 89 °F 79 °F 93 °F (1996)
Min Temperature 66 °F 53 °F 46 °F (1997)
Cooling Degree Days 12    
Growing Degree Days 28 (Base 50)    
Moisture  
Dew Point 53 °F    
Average Humidity 44    
Maximum Humidity 68    
Minimum Humidity 24    
Precipitation  
Precipitation 0.00 in - - ()
Sea Level Pressure  
Sea Level Pressure 29.87 in    
Wind  
Wind Speed 12 mph (NNW)    
Max Wind Speed 24 mph    
Max Gust Speed 32 mph    
Visibility 10 miles    
Events Thunderstorm    
Averages and records for this station are not official NWS values.
T = Trace of Precipitation, MM = Missing Value Source: NWS Daily Summary

Daily Weather History Graph

Daily Weather History Graph

Search for Another Location

Airport or City:

Trip Planner

Search our weather history database for the weather conditions in past years. The results will help you decide how hot, cold, wet, or windy it might be!

Date:

Astronomy

Jul. 02, 2012 Rise Set
Actual Time 5:08 AM MDT 8:57 PM MDT
Civil Twilight 4:28 AM MDT 9:37 PM MDT
Nautical Twilight 3:34 AM MDT 10:31 PM MDT
Astronomical Twilight 2:15 AM MDT 11:49 PM MDT
Moon 8:00 PM MDT (7/2) 3:59 AM MDT (7/2)
Length of Visible Light 17h 08m
Length of Day
15h 49m
Waxing Gibbous, 98% of the Moon is Illuminated
Jul 2
Waxing Gibbous
Jul 3
Full
Jul 10
Last Quarter
Jul 18
New
Jul 26
First Quarter

Hourly Weather History & Observations

Time (MDT) Temp. Heat Index Dew Point Humidity Pressure Visibility Wind Dir Wind Speed Gust Speed Precip Events Conditions
12:15 AM 80.6 °F - 50.0 °F 34% 29.71 in 10.0 mi SSE 10.4 mph 24.2 mph N/A   Clear
12:35 AM 80.6 °F - 51.8 °F 37% 29.80 in 10.0 mi West 24.2 mph 32.2 mph N/A   Clear
12:55 AM 78.8 °F - 51.8 °F 39% 29.80 in 10.0 mi West 18.4 mph 26.5 mph N/A   Clear
1:15 AM 75.2 °F - 57.2 °F 53% 29.82 in 10.0 mi West 16.1 mph 25.3 mph N/A Thunderstorm Scattered Clouds
1:35 AM 71.6 °F - 55.4 °F 57% 29.81 in 10.0 mi NW 24.2 mph 29.9 mph N/A Thunderstorm Thunderstorm
1:55 AM 69.8 °F - 53.6 °F 56% 29.81 in 10.0 mi NW 17.3 mph 24.2 mph N/A   Clear
2:15 AM 68.0 °F - 53.6 °F 60% 29.81 in 10.0 mi NW 13.8 mph 21.9 mph N/A   Clear
2:35 AM 66.2 °F - 53.6 °F 64% 29.82 in 10.0 mi NNW 20.7 mph 26.5 mph N/A   Clear
2:55 AM 66.2 °F - 53.6 °F 64% 29.83 in 10.0 mi NNW 19.6 mph 26.5 mph N/A   Partly Cloudy
3:15 AM 66.2 °F - 53.6 °F 64% 29.83 in 10.0 mi NNW 18.4 mph - N/A   Mostly Cloudy
3:35 AM 68.0 °F - 53.6 °F 60% 29.82 in 10.0 mi NNW 15.0 mph - N/A   Scattered Clouds
3:55 AM 69.8 °F - 53.6 °F 56% 29.82 in 10.0 mi NNE 12.7 mph - N/A   Mostly Cloudy
4:15 AM 69.8 °F - 53.6 °F 56% 29.81 in 10.0 mi NE 12.7 mph - N/A   Scattered Clouds
4:55 AM 66.2 °F - 53.6 °F 64% 29.82 in 10.0 mi NNW 9.2 mph - N/A   Clear
5:15 AM 66.2 °F - 53.6 °F 64% 29.82 in 10.0 mi North 3.5 mph - N/A   Clear
5:35 AM 68.0 °F - 53.6 °F 60% 29.80 in 10.0 mi NE 12.7 mph - N/A   Clear
5:55 AM 69.8 °F - 53.6 °F 56% 29.81 in 10.0 mi NE 12.7 mph - N/A   Clear
6:15 AM 69.8 °F - 55.4 °F 60% 29.83 in 10.0 mi NNE 6.9 mph - N/A   Clear
6:35 AM 69.8 °F - 55.4 °F 60% 29.85 in 10.0 mi WNW 9.2 mph - N/A   Clear
6:55 AM 69.8 °F - 53.6 °F 56% 29.86 in 10.0 mi NNW 8.1 mph - N/A   Clear
7:15 AM 69.8 °F - 53.6 °F 56% 29.89 in 10.0 mi NW 15.0 mph - N/A   Clear
7:35 AM 68.0 °F - 55.4 °F 64% 29.89 in 10.0 mi NW 12.7 mph - N/A   Clear
7:55 AM 68.0 °F - 57.2 °F 68% 29.90 in 10.0 mi NW 16.1 mph 19.6 mph N/A   Clear
8:15 AM 71.6 °F - 57.2 °F 60% 29.91 in 10.0 mi NW 13.8 mph - N/A   Clear
8:35 AM 73.4 °F - 57.2 °F 57% 29.92 in 10.0 mi NW 12.7 mph 18.4 mph N/A   Clear
8:55 AM 75.2 °F - 57.2 °F 53% 29.92 in 10.0 mi NNW 11.5 mph - N/A   Clear
9:15 AM 77.0 °F - 57.2 °F 50% 29.92 in 10.0 mi NNW 9.2 mph 16.1 mph N/A   Clear
9:35 AM 78.8 °F - 55.4 °F 44% 29.92 in 10.0 mi NNW 10.4 mph - N/A   Clear
9:55 AM 78.8 °F - 55.4 °F 44% 29.92 in 10.0 mi North 5.8 mph - N/A   Clear
10:15 AM 80.6 °F 80.5 °F 55.4 °F 42% 29.91 in 10.0 mi NW 6.9 mph - N/A   Clear
10:35 AM 80.6 °F 80.8 °F 57.2 °F 45% 29.91 in 10.0 mi NNW 6.9 mph - N/A   Clear
10:55 AM 82.4 °F 82.0 °F 57.2 °F 42% 29.91 in 10.0 mi NW 9.2 mph - N/A   Clear
11:15 AM 82.4 °F 81.7 °F 55.4 °F 39% 29.91 in 10.0 mi NW 10.4 mph - N/A   Clear
11:35 AM 82.4 °F 81.7 °F 55.4 °F 39% 29.91 in 10.0 mi North 8.1 mph - N/A   Clear
11:55 AM 84.2 °F 82.8 °F 53.6 °F 35% 29.90 in 10.0 mi NW 8.1 mph - N/A   Clear
12:15 PM 84.2 °F 82.8 °F 53.6 °F 35% 29.90 in 10.0 mi NNW 6.9 mph - N/A   Clear
12:35 PM 84.2 °F - 51.8 °F 33% 29.90 in 10.0 mi NNW 6.9 mph 16.1 mph N/A   Clear
12:55 PM 86.0 °F - 51.8 °F 31% 29.90 in 10.0 mi WNW 8.1 mph - N/A   Clear
1:15 PM 86.0 °F - 51.8 °F 31% 29.90 in 10.0 mi WNW 10.4 mph 18.4 mph N/A   Clear
1:35 PM 86.0 °F - 51.8 °F 31% 29.90 in 10.0 mi NW 5.8 mph - N/A   Clear
1:55 PM 87.8 °F - 51.8 °F 29% 29.89 in 10.0 mi SSW 5.8 mph - N/A   Clear
2:15 PM 86.0 °F - 50.0 °F 29% 29.89 in 10.0 mi WNW 9.2 mph - N/A   Clear
2:35 PM 87.8 °F - 51.8 °F 29% 29.88 in 10.0 mi NNW 11.5 mph - N/A   Clear
2:55 PM 89.6 °F - 50.0 °F 26% 29.89 in 10.0 mi West 8.1 mph - N/A   Clear
3:15 PM 89.6 °F - 50.0 °F 26% 29.88 in 10.0 mi WNW 9.2 mph - N/A   Clear
3:35 PM 89.6 °F - 50.0 °F 26% 29.88 in 10.0 mi NW 5.8 mph - N/A   Clear
4:55 PM 87.8 °F - 48.2 °F 25% 29.88 in 10.0 mi Calm Calm - N/A   Clear
5:15 PM 89.6 °F - 48.2 °F 24% 29.87 in 10.0 mi NNW 11.5 mph 18.4 mph N/A   Clear
5:55 PM 89.6 °F - 48.2 °F 24% 29.86 in 10.0 mi NNW 6.9 mph - N/A   Clear
6:35 PM 87.8 °F - 50.0 °F 27% 29.86 in 10.0 mi NNW 11.5 mph - N/A   Clear
6:55 PM 87.8 °F - 48.2 °F 25% 29.86 in 10.0 mi North 9.2 mph - N/A   Clear
7:15 PM 87.8 °F - 48.2 °F 25% 29.86 in 10.0 mi North 5.8 mph - N/A   Clear
7:55 PM 86.0 °F - 48.2 °F 27% 29.86 in 10.0 mi North 6.9 mph - N/A   Clear
8:15 PM 84.2 °F - 48.2 °F 29% 29.86 in 10.0 mi North 6.9 mph - N/A   Clear
8:35 PM 82.4 °F - 50.0 °F 32% 29.86 in 10.0 mi North 8.1 mph - N/A   Clear
8:55 PM 78.8 °F - 50.0 °F 36% 29.87 in 10.0 mi NNW 8.1 mph - N/A   Clear
9:15 PM 77.0 °F - 48.2 °F 36% 29.88 in 10.0 mi NW 8.1 mph - N/A   Clear
9:35 PM 75.2 °F - 50.0 °F 41% 29.89 in 10.0 mi NNW 10.4 mph - N/A   Clear
9:55 PM 75.2 °F - 50.0 °F 41% 29.90 in 10.0 mi NNW 8.1 mph - N/A   Clear
10:15 PM 73.4 °F - 50.0 °F 44% 29.89 in 10.0 mi North 8.1 mph - N/A   Clear
10:35 PM 73.4 °F - 50.0 °F 44% 29.89 in 10.0 mi North 9.2 mph - N/A   Clear
10:55 PM 73.4 °F - 51.8 °F 47% 29.89 in 10.0 mi NNE 8.1 mph - N/A   Clear
11:35 PM 73.4 °F - 51.8 °F 47% 29.88 in 10.0 mi NE 9.2 mph - N/A   Clear
11:55 PM 71.6 °F - 51.8 °F 50% 29.88 in 10.0 mi NE 8.1 mph - N/A   Clear